QPF
0.00 0.00 0.00 0.00 0.00 0.00 0.00 0.00 0.00 0.00 0.00 0.00 0.00 0.00 0.00 0.00 0.00 0.00 0.00 0.00 0.00 0.00 0.00 0.00 0.00 0.00 0.00 0.00 0.00 0.00 0.00 0.00 0.00 0.00 0.00 0.00 0.00 0.00 0.00 0.00 0.00 0.00 0.00 0.00 0.00
0.00 0.00 0.00 0.00 0.00 0.00 0.00 0.00 0.00 0.00 0.00 0.00 0.00 0.00 0.00 0.00 0.00 0.00 0.00 0.00 0.00 0.00 0.00 0.00 0.00 0.00 0.00 0.00 0.00 0.00 0.00 0.00 0.00 0.00 0.00 0.00 0.00 0.00 0.00 0.00 0.00 0.00 0.00 0.00 0.00
0.00 0.00 0.00 0.00 0.00 0.00 0.00 0.00 0.00 0.00 0.00 0.00 0.00 0.00 0.00 0.00 0.00 0.00 0.00 0.00 0.00 0.00 0.00 0.00 0.00 0.00 0.00 0.00 0.00 0.00 0.00 0.00 0.00 0.00 0.00 0.00 0.00 0.00 0.00 0.00 0.00 0.00 0.00 0.00 0.00
0.00 0.00 0.00 0.00 0.00 0.00 0.00 0.00 0.00 0.00 0.00 0.00 0.00 0.00 0.00 0.00 0.00 0.00 0.00 0.00 0.00 0.00 0.00 0.00 0.00 0.00 0.00 0.00 0.00 0.00 0.00 0.00 0.00 0.00 0.00 0.00 0.00 0.00 0.00 0.00 0.00 0.00 0.00 0.00 0.00
0.00 0.00 0.00 0.00 0.00 0.00 0.00 0.00 0.00 0.00 0.00 0.00 0.00 0.00 0.00 0.00 0.00 0.00 0.00 0.00 0.00 0.00 0.00 0.00 0.00 0.00 0.00 0.00 0.00 0.00 0.00 0.00 0.00 0.00 0.00 0.00 0.00 0.00 0.00 0.00 0.00 0.00 0.00 0.00 0.00
0.00 0.00 0.00 0.00 0.00 0.00 0.00 0.00 0.00 0.00 0.00 0.00 0.00 0.00 0.00 0.00 0.00 0.00 0.00 0.00 0.00 0.00 0.00 0.00 0.00 0.00 0.00 0.00 0.00 0.00 0.00 0.00 0.00 0.00 0.00 0.00 0.00 0.00 0.00 0.00 0.00 0.00 0.00 0.00 0.00
0.00 0.00 0.00 0.00 0.00 0.00 0.00 0.00 0.00 0.00 0.00 0.00 0.00 0.00 0.00 0.00 0.00 0.00 0.00 0.00 0.00 0.00 0.00 0.00 0.00 0.00 0.00 0.00 0.00 0.00 0.00 0.00 0.00 0.00 0.00 0.00 0.00 0.00 0.00 0.00 0.00 0.00 0.00 0.00 0.00
0.00 0.00 0.00 0.00 0.00 0.00 0.00 0.00 0.00 0.00 0.00 0.00 0.00 0.00 0.00 0.00 0.00 0.00 0.00 0.00 0.00 0.00 0.00 0.00 0.00 0.00 0.00 0.00 0.00 0.00 0.00 0.00 0.00 0.00 0.00 0.00 0.00 0.00 0.00 0.00 0.00 0.00 0.00 0.00 0.00
0.00 0.00 0.00 0.00 0.00 0.00 0.00 0.00 0.00 0.00 0.00 0.00 0.00 0.00 0.00 0.00 0.00 0.00 0.00 0.00 0.00 0.00 0.00 0.00 0.00 0.00 0.00 0.00 0.00 0.00 0.00 0.00 0.00 0.00 0.00 0.00 0.00 0.00 0.00 0.00 0.00 0.00 0.00 0.00 0.00
0.00 0.00 0.00 0.00 0.00 0.00 0.00 0.00 0.00 0.00 0.00 0.00 0.00 0.00 0.00 0.00 0.00 0.00 0.00 0.00 0.00 0.00 0.00 0.00 0.00 0.00 0.00 0.00 0.00 0.00 0.00 0.00 0.00 0.00 0.00 0.00 0.00 0.00 0.00 0.00 0.00 0.00 0.00 0.00 0.00
0.00 0.00 0.00 0.00 0.00 0.00 0.00 0.00 0.00 0.00 0.00 0.00 0.00 0.00 0.00 0.00 0.00 0.00 0.00 0.00 0.00 0.00 0.00 0.00 0.00 0.00 0.00 0.00 0.00 0.00 0.00 0.00 0.00 0.00 0.00 0.00 0.00 0.00 0.00 0.00 0.00 0.00 0.00 0.00 0.00
0.00 0.00 0.00 0.00 0.00 0.00 0.00 0.00 0.00 0.00 0.00 0.00 0.00 0.00 0.00 0.00 0.00 0.00 0.00 0.00 0.00 0.00 0.00 0.00 0.00 0.00 0.00 0.00 0.00 0.00 0.00 0.00 0.00 0.00 0.00 0.00 0.00 0.00 0.00 0.00 0.00 0.00 0.00 0.00 0.00
0.00 0.00 0.00 0.00 0.00 0.00 0.00 0.00 0.00 0.00 0.00 0.00 0.00 0.00 0.00 0.00 0.00 0.00 0.00 0.00 0.00 0.00 0.00 0.00 0.00 0.00 0.00 0.00 0.00 0.00 0.00 0.00 0.00 0.00 0.00 0.00 0.00 0.00 0.00 0.00 0.00 0.00 0.00 0.00 0.00
0.00 0.00 0.00 0.00 0.00 0.00 0.00 0.00 0.00 0.00 0.00 0.00 0.00 0.00 0.00 0.00 0.00 0.00 0.00 0.00 0.00 0.00 0.00 0.00 0.00 0.00 0.00 0.00 0.00 0.00 0.00 0.00 0.00 0.00 0.00 0.00 0.00 0.00 0.00 0.00 0.00 0.00 0.00 0.00 0.00
0.00 0.00 0.00 0.00 0.00 0.00 0.00 0.00 0.00 0.00 0.00 0.00 0.00 0.00 0.00 0.00 0.00 0.00 0.00 0.00 0.00 0.00 0.00 0.00 0.00 0.00 0.00 0.00 0.00 0.00 0.00 0.00 0.00 0.00 0.00 0.00 0.00 0.00 0.00 0.00 0.00 0.00 0.00 0.00 0.00
0.00 0.00 0.00 0.00 0.00 0.00 0.00 0.00 0.00 0.00 0.00 0.00 0.00 0.00 0.00 0.00 0.00 0.00 0.00 0.00 0.00 0.00 0.00 0.00 0.00 0.00 0.00 0.00 0.00 0.00 0.00 0.00 0.00 0.00 0.00 0.00 0.00 0.00 0.00 0.00 0.00 0.00 0.00 0.00 0.00
0.00 0.00 0.01 0.00 0.00 0.00 0.00 0.00 0.00 0.00 0.00 0.00 0.00 0.00 0.00 0.00 0.00 0.00 0.00 0.00 0.00 0.00 0.00 0.00 0.00 0.00 0.00 0.00 0.00 0.00 0.00 0.00 0.00 0.00 0.00 0.00 0.00 0.00 0.00 0.00 0.00 0.00 0.00 0.00 0.00
0.01 0.02 0.01 0.00 0.00 0.00 0.00 0.04 0.01 0.00 0.00 0.00 0.00 0.00 0.00 0.00 0.00 0.00 0.00 0.00 0.00 0.00 0.00 0.00 0.00 0.00 0.00 0.00 0.00 0.00 0.00 0.00 0.00 0.00 0.00 0.00 0.00 0.00 0.00 0.00 0.00 0.00 0.00 0.00 0.00
0.01 0.04 0.02 0.00 0.00 0.00 0.02 0.03 0.00 0.00 0.00 0.00 0.00 0.00 0.00 0.00 0.00 0.00 0.00 0.00 0.00 0.00 0.00 0.00 0.00 0.00 0.00 0.00 0.00 0.00 0.00 0.00 0.00 0.00 0.00 0.00 0.00 0.00 0.00 0.00 0.00 0.00 0.00 0.00 0.00
0.06 0.05 0.00 0.00 0.01 0.04 0.05 0.01 0.00 0.00 0.00 0.00 0.00 0.00 0.00 0.00 0.00 0.00 0.00 0.00 0.00 0.00 0.00 0.00 0.00 0.00 0.00 0.00 0.00 0.00 0.00 0.00 0.00 0.00 0.00 0.00 0.00 0.00 0.00 0.00 0.00 0.00 0.00 0.00 0.00
0.07 0.09 0.01 0.00 0.06 0.09 0.08 0.01 0.00 0.00 0.00 0.00 0.00 0.00 0.00 0.00 0.00 0.00 0.00 0.00 0.00 0.00 0.00 0.00 0.00 0.00 0.00 0.00 0.00 0.00 0.00 0.00 0.00 0.00 0.00 0.00 0.00 0.00 0.00 0.00 0.00 0.00 0.00 0.00 0.00
0.04 0.11 0.04 0.02 0.08 0.10 0.02 0.00 0.00 0.00 0.00 0.00 0.00 0.00 0.00 0.00 0.00 0.00 0.00 0.00 0.00 0.00 0.00 0.00 0.00 0.00 0.00 0.00 0.00 0.00 0.00 0.00 0.00 0.00 0.00 0.00 0.00 0.00 0.00 0.00 0.00 0.00 0.00 0.00 0.00
0.05 0.08 0.10 0.16 0.11 0.04 0.01 0.01 0.00 0.00 0.00 0.00 0.00 0.00 0.00 0.00 0.00 0.00 0.00 0.00 0.00 0.00 0.00 0.00 0.00 0.00 0.00 0.00 0.00 0.00 0.00 0.00 0.00 0.00 0.00 0.00 0.00 0.00 0.00 0.00 0.00 0.00 0.00 0.00 0.00
0.05 0.05 0.12 0.14 0.06 0.04 0.05 0.06 0.03 0.00 0.00 0.00 0.00 0.00 0.00 0.00 0.00 0.00 0.00 0.00 0.00 0.00 0.00 0.00 0.00 0.00 0.00 0.00 0.00 0.00 0.00 0.00 0.00 0.00 0.00 0.00 0.00 0.00 0.00 0.00 0.00 0.00 0.00 0.00 0.00
0.08 0.05 0.05 0.05 0.07 0.06 0.04 0.04 0.04 0.02 0.00 0.00 0.00 0.00 0.00 0.00 0.00 0.00 0.00 0.00 0.00 0.00 0.00 0.00 0.00 0.00 0.00 0.00 0.00 0.00 0.00 0.00 0.00 0.00 0.00 0.00 0.00 0.00 0.00 0.00 0.00 0.00 0.00 0.00 0.00
0.03 0.04 0.03 0.02 0.05 0.05 0.05 0.03 0.01 0.00 0.01 0.01 0.00 0.00 0.00 0.00 0.00 0.00 0.00 0.00 0.00 0.00 0.00 0.00 0.00 0.00 0.00 0.00 0.00 0.00 0.00 0.00 0.00 0.00 0.00 0.00 0.00 0.00 0.00 0.00 0.00 0.00 0.00 0.00 0.00
0.03 0.03 0.01 0.01 0.02 0.04 0.04 0.05 0.03 0.00 0.00 0.00 0.00 0.00 0.00 0.00 0.00 0.00 0.00 0.00 0.00 0.00 0.00 0.00 0.00 0.00 0.00 0.00 0.00 0.00 0.00 0.00 0.00 0.00 0.00 0.00 0.00 0.00 0.00 0.00 0.00 0.00 0.00 0.00 0.00
MSLP
1018.85 1018.56 1018.15 1017.92 1017.81 1017.50 1016.99 1016.49 1016.53 1016.09 1015.60 1015.48 1014.63 1014.07 1013.39 1013.40 1012.66 1011.13 1009.38 1007.55 1007.32 1008.19 1008.70 1007.85 1007.66 1007.27 1006.67 1006.31 1005.66 1005.48 1004.92 1003.62 1002.64 1001.38 1000.50 1000.32 1000.22 1000.13 1000.29 1000.96 1001.59 1001.98 1002.68 1003.71 1004.40
1018.41 1018.23 1017.90 1017.83 1017.54 1017.04 1016.66 1016.42 1016.55 1015.81 1015.35 1015.31 1014.59 1013.92 1013.26 1012.95 1011.70 1008.72 1006.80 1006.90 1007.09 1007.32 1008.08 1007.12 1006.53 1006.40 1006.08 1005.56 1005.17 1004.75 1004.13 1003.06 1002.38 1001.31 1000.84 1000.63 1000.66 1000.63 1000.64 1000.54 1000.75 1001.35 1002.33 1003.39 1004.19
1018.28 1018.13 1017.77 1017.63 1017.30 1017.07 1016.69 1016.37 1016.09 1015.68 1015.40 1015.06 1014.25 1013.55 1012.95 1012.69 1010.34 1005.97 1005.54 1005.62 1006.31 1006.73 1006.61 1006.29 1005.87 1005.49 1005.32 1004.95 1004.38 1003.90 1003.09 1002.79 1002.11 1001.55 1001.24 1001.06 1000.74 1000.77 1000.25 1000.30 1000.58 1001.28 1001.79 1003.00 1003.94
1018.05 1017.72 1017.47 1017.32 1017.13 1016.71 1016.39 1016.16 1015.85 1015.53 1015.10 1014.73 1014.03 1013.13 1012.62 1011.84 1008.46 1005.57 1005.67 1005.78 1005.98 1006.16 1006.51 1005.77 1005.40 1004.97 1004.12 1003.75 1003.62 1003.11 1002.28 1001.85 1001.47 1001.26 1001.35 1001.08 1000.74 1000.49 1000.29 1000.38 1000.59 1001.00 1001.74 1002.49 1003.16
1017.90 1017.56 1017.36 1017.16 1016.88 1016.50 1016.16 1015.90 1015.68 1015.26 1014.94 1014.64 1014.02 1013.29 1012.29 1009.96 1006.71 1005.47 1006.02 1006.09 1006.18 1006.45 1005.89 1005.31 1004.72 1003.92 1003.27 1002.77 1002.92 1002.28 1001.52 1001.11 1000.90 1001.10 1001.28 1000.57 1000.16 1000.08 1000.07 1000.20 1000.48 1000.92 1001.58 1002.11 1002.68
1017.68 1017.37 1017.06 1016.82 1016.49 1016.11 1015.71 1015.47 1015.24 1015.01 1014.67 1014.15 1013.57 1013.42 1012.20 1008.75 1005.85 1005.40 1005.03 1005.91 1005.42 1005.79 1005.30 1004.89 1004.15 1003.56 1002.96 1002.57 1001.98 1001.53 1001.06 1000.60 1000.81 1000.77 1000.29 999.96 999.74 999.95 999.93 1000.23 1000.45 1000.98 1001.47 1001.91 1002.22
1017.55 1017.15 1016.75 1016.32 1016.05 1015.73 1015.38 1015.02 1014.64 1014.12 1013.58 1013.35 1013.66 1013.11 1010.69 1006.73 1005.22 1004.41 1004.14 1004.00 1004.62 1004.76 1004.45 1004.25 1004.27 1003.71 1002.68 1002.09 1001.79 1001.29 1000.88 1000.43 1000.03 999.90 999.75 999.78 999.31 999.39 999.85 999.84 1000.18 1000.38 1000.78 1001.35 1001.98
1017.27 1016.90 1016.50 1016.13 1015.82 1015.46 1015.03 1014.64 1014.18 1013.75 1013.35 1013.23 1013.30 1012.57 1008.47 1005.85 1005.47 1004.87 1004.41 1003.85 1003.38 1003.32 1003.19 1003.21 1003.25 1003.22 1002.82 1002.40 1001.72 1001.23 1000.94 999.89 999.37 999.15 998.72 998.98 998.58 999.01 999.30 999.11 999.65 999.68 1000.11 1000.62 1001.39
1017.16 1016.77 1016.40 1016.08 1015.71 1015.24 1014.80 1014.37 1013.74 1013.21 1012.82 1012.76 1012.58 1011.09 1006.65 1004.04 1004.08 1002.99 1003.04 1002.87 1002.36 1002.45 1002.55 1002.66 1002.87 1002.53 1002.92 1002.53 1001.63 1000.85 999.94 999.41 998.60 998.12 997.61 997.37 997.94 998.63 998.78 998.63 998.66 998.98 999.41 999.89 1000.54
1017.08 1016.65 1016.26 1015.92 1015.48 1015.06 1014.59 1013.92 1012.08 1012.55 1011.80 1011.42 1010.34 1009.24 1005.37 1002.44 1001.72 1001.82 1001.96 1002.01 1002.27 1002.19 1002.28 1002.34 1002.09 1002.01 1001.69 1001.67 999.74 999.98 999.24 998.74 997.98 997.26 996.57 996.92 997.37 997.76 997.92 997.95 998.12 998.43 998.45 998.94 999.93
1016.96 1016.60 1016.17 1015.72 1015.32 1014.91 1014.43 1012.41 1010.46 1010.44 1009.62 1006.70 1004.90 1003.25 1000.93 1000.49 1000.71 1000.60 1000.47 1001.20 1001.58 1001.58 1001.38 1001.81 1001.42 1000.20 1000.20 1000.07 1000.20 999.62 998.64 997.68 996.75 996.11 997.57 997.18 996.85 996.92 997.10 997.40 997.34 997.37 997.61 998.26 999.30
1016.54 1016.31 1016.00 1015.56 1015.08 1014.76 1014.59 1012.66 1009.03 1008.70 1006.54 1005.21 1003.60 1002.10 1001.35 1000.43 999.96 999.58 999.49 1000.01 1000.50 1000.32 1001.01 1001.14 999.48 999.84 999.91 999.73 999.60 999.10 998.37 997.43 996.72 996.22 996.30 996.26 996.19 996.54 996.76 996.76 996.77 996.76 997.12 997.65 998.84
1016.14 1016.05 1015.78 1015.39 1014.84 1014.00 1012.72 1011.06 1009.70 1008.57 1006.29 1002.97 1001.37 1000.59 1000.56 1000.42 999.13 998.57 998.92 998.88 999.02 999.78 999.62 998.85 998.11 999.41 998.80 998.41 998.31 998.14 997.70 997.38 996.88 996.65 996.59 996.43 996.23 996.32 996.07 995.68 995.64 995.78 996.38 997.34 998.80
1015.61 1015.61 1015.55 1015.42 1014.77 1011.82 1010.13 1008.86 1008.49 1008.19 1005.56 999.64 997.77 996.32 998.01 999.27 997.29 997.72 997.23 998.02 998.18 998.14 998.75 997.68 998.08 997.53 997.48 996.88 997.16 996.80 996.97 996.78 996.73 997.03 996.83 996.79 995.98 995.93 995.70 995.18 994.81 995.21 995.91 996.96 998.51
1015.15 1015.05 1015.12 1015.41 1013.55 1011.84 1010.12 1008.69 1007.92 1007.90 1003.26 994.18 992.89 992.71 993.82 995.03 994.70 994.75 996.34 996.65 996.63 997.09 997.72 995.10 996.11 996.06 995.35 995.58 995.90 995.63 995.88 995.97 996.46 997.04 997.18 997.35 996.99 995.94 995.38 994.53 994.21 994.91 995.47 996.38 997.91
1014.58 1014.50 1014.61 1014.18 1013.47 1011.92 1010.87 1009.83 1009.03 1006.79 999.17 992.91 990.09 991.40 992.92 993.88 994.03 992.96 994.77 995.78 996.47 996.40 995.66 995.30 995.11 994.65 994.25 994.21 994.63 995.14 995.37 995.81 996.61 997.01 996.77 996.90 996.77 995.67 994.75 994.32 994.43 994.82 995.16 996.23 997.98
1013.96 1013.82 1013.96 1013.17 1011.87 1010.92 1010.45 1010.18 1008.42 1003.23 996.65 992.50 990.54 991.10 991.97 992.37 993.44 993.68 993.87 994.58 994.18 994.95 993.81 994.28 993.70 993.36 993.33 993.29 993.51 994.29 994.84 995.70 996.60 996.84 996.49 996.41 995.80 994.63 994.04 994.10 994.35 994.92 995.58 996.73 998.24
1013.29 1013.17 1012.76 1012.41 1011.88 1011.38 1011.52 1010.56 1006.45 1000.21 997.54 991.81 991.22 991.17 991.36 991.57 991.88 992.56 992.51 993.04 993.23 993.15 993.25 992.97 992.42 991.84 991.68 991.67 992.25 993.02 994.55 994.99 995.72 996.18 995.91 994.71 994.46 993.73 993.78 993.94 994.51 995.17 995.95 997.23 998.60
1012.88 1012.22 1011.95 1011.52 1011.24 1011.22 1011.71 1009.25 1004.78 1001.44 997.80 995.93 994.05 992.58 990.91 991.03 990.56 991.78 991.14 990.86 990.95 991.44 991.63 991.31 990.58 991.05 991.01 991.21 991.73 992.51 993.50 994.83 995.60 995.61 995.41 994.61 994.09 993.52 993.30 993.82 994.37 995.06 996.22 997.56 998.96
1012.38 1011.78 1010.68 1010.24 1010.63 1011.07 1010.83 1008.17 1004.59 1002.50 999.99 998.66 996.84 994.51 992.85 990.89 990.35 990.21 990.16 989.30 989.94 990.57 991.08 990.29 990.28 989.71 990.02 990.60 991.09 991.74 993.14 994.47 995.26 995.57 995.35 994.63 993.63 992.77 993.31 993.69 994.23 995.31 996.59 997.96 999.17
1012.28 1011.65 1009.17 1009.28 1009.91 1010.67 1009.07 1006.65 1004.62 1003.78 1001.85 1001.05 999.07 997.11 995.70 994.16 991.70 989.13 989.14 988.77 988.92 989.35 990.46 990.12 989.55 989.12 989.08 989.02 989.90 991.56 991.97 993.15 994.58 995.07 994.89 994.58 993.33 992.22 992.92 993.80 994.88 995.67 996.60 998.12 999.14
1012.32 1011.12 1008.59 1008.64 1010.17 1010.03 1008.72 1006.95 1006.24 1004.41 1003.12 1002.03 1000.87 999.70 998.21 995.94 993.74 991.37 987.91 987.55 987.14 988.39 988.92 988.79 989.08 988.93 987.89 988.44 989.72 990.81 991.63 992.40 993.53 994.27 994.29 993.85 993.36 992.90 993.24 993.79 994.58 995.65 996.77 998.15 998.97
1011.68 1009.87 1009.31 1010.07 1009.39 1009.31 1008.07 1006.98 1005.93 1004.54 1003.38 1002.50 1001.87 1001.03 999.58 998.16 996.03 991.97 989.18 986.90 987.01 987.31 987.42 988.60 989.12 988.84 988.10 988.17 989.03 990.29 991.13 991.92 992.76 993.72 993.66 993.75 992.97 992.89 993.08 993.54 994.36 995.36 996.60 997.96 998.67
1011.94 1010.33 1009.31 1009.79 1009.31 1009.01 1007.98 1006.52 1005.58 1004.68 1003.18 1002.43 1002.81 1001.92 1001.02 999.57 997.20 993.99 991.06 988.11 986.46 986.50 987.31 988.55 988.40 988.46 987.39 987.20 988.42 989.47 990.27 991.05 991.96 992.56 993.18 992.88 992.38 992.32 993.05 993.47 994.05 994.78 995.88 997.21 998.04
1011.82 1010.24 1009.35 1008.98 1008.92 1008.87 1008.70 1007.15 1005.43 1005.20 1002.98 1002.27 1001.79 1001.49 1001.16 999.73 997.76 995.26 994.03 992.59 988.76 986.59 987.03 987.91 988.22 988.26 988.24 987.86 987.76 988.51 989.57 990.33 990.66 991.50 992.06 992.42 992.11 991.87 992.37 993.13 993.41 994.21 995.38 996.45 997.56
1011.94 1010.60 1009.67 1009.15 1008.53 1008.11 1007.21 1006.14 1004.71 1003.69 1002.63 1001.67 1001.63 1000.51 1000.52 999.97 998.70 997.62 996.94 995.45 992.86 989.53 987.32 987.41 988.02 988.64 988.10 987.98 987.19 987.51 988.39 989.48 989.92 990.51 991.44 991.76 991.54 991.58 991.67 992.24 992.61 993.52 994.72 995.81 996.90
1011.30 1010.98 1010.64 1009.29 1008.51 1007.76 1006.47 1005.67 1004.61 1004.08 1002.19 1001.51 1001.01 1000.46 1000.27 1000.21 999.28 998.83 998.01 996.77 994.91 993.24 990.40 987.32 987.20 988.07 987.68 987.71 987.25 986.44 986.89 988.03 988.96 989.48 990.12 990.39 991.05 991.22 991.10 991.33 991.88 993.01 994.08 994.99 995.89
Thickness
5653 5657 5661 5665 5668 5673 5680 5689 5690 5698 5704 5708 5719 5725 5733 5733 5741 5758 5767 5785 5789 5785 5781 5786 5784 5784 5788 5782 5791 5790 5752 5752 5767 5781 5793 5813 5800 5815 5817 5792 5791 5786 5778 5778 5779
5650 5651 5655 5657 5661 5668 5674 5680 5681 5690 5697 5700 5710 5719 5727 5730 5741 5761 5787 5787 5788 5787 5776 5775 5772 5777 5769 5774 5779 5768 5751 5761 5786 5797 5790 5799 5796 5798 5793 5790 5784 5780 5779 5779 5775
5645 5646 5648 5651 5654 5655 5660 5667 5673 5681 5686 5693 5703 5712 5721 5725 5740 5774 5791 5793 5790 5786 5783 5782 5780 5773 5762 5772 5774 5771 5754 5772 5782 5793 5794 5788 5790 5797 5788 5776 5785 5773 5777 5768 5766
5639 5641 5644 5646 5647 5650 5653 5658 5665 5671 5678 5686 5697 5707 5713 5720 5719 5774 5785 5785 5784 5782 5773 5772 5768 5758 5759 5759 5776 5755 5776 5781 5785 5791 5785 5779 5791 5782 5786 5782 5793 5786 5785 5774 5765
5633 5635 5636 5638 5641 5645 5648 5651 5655 5661 5668 5676 5685 5694 5706 5712 5737 5768 5769 5773 5774 5769 5764 5762 5756 5761 5752 5767 5767 5763 5776 5787 5790 5785 5782 5790 5781 5782 5781 5792 5793 5786 5780 5771 5765
5626 5628 5630 5633 5637 5640 5644 5647 5650 5654 5660 5669 5676 5680 5689 5692 5761 5763 5765 5759 5765 5758 5760 5759 5756 5766 5758 5760 5764 5777 5778 5782 5781 5779 5786 5778 5780 5781 5784 5788 5781 5776 5771 5769 5765
5617 5620 5623 5628 5632 5635 5638 5642 5646 5653 5661 5665 5662 5669 5681 5715 5754 5758 5761 5756 5763 5758 5752 5759 5760 5752 5765 5755 5775 5773 5757 5770 5777 5781 5777 5784 5767 5769 5785 5785 5774 5772 5770 5769 5764
5612 5614 5616 5619 5621 5626 5632 5637 5641 5646 5651 5654 5656 5661 5684 5731 5734 5741 5749 5753 5765 5767 5765 5768 5767 5754 5751 5763 5758 5750 5753 5741 5773 5781 5787 5780 5746 5776 5787 5783 5771 5773 5772 5767 5762
5601 5604 5607 5610 5613 5616 5621 5628 5634 5641 5647 5648 5653 5661 5688 5741 5730 5753 5751 5747 5757 5762 5763 5766 5757 5747 5744 5729 5730 5742 5729 5741 5761 5788 5788 5786 5757 5773 5786 5784 5776 5773 5772 5770 5762
5587 5590 5594 5598 5603 5607 5612 5618 5633 5633 5642 5647 5659 5660 5701 5724 5743 5750 5754 5753 5742 5745 5741 5741 5741 5729 5735 5725 5720 5729 5737 5750 5753 5781 5794 5778 5767 5779 5783 5782 5775 5776 5775 5771 5763
5571 5573 5578 5583 5588 5594 5600 5619 5638 5635 5640 5670 5687 5700 5726 5739 5750 5745 5752 5740 5738 5731 5718 5729 5717 5719 5735 5747 5746 5748 5751 5756 5779 5801 5766 5768 5771 5779 5786 5780 5778 5779 5779 5772 5762
5555 5557 5561 5566 5572 5578 5582 5599 5628 5632 5644 5671 5686 5701 5718 5726 5721 5736 5751 5726 5721 5713 5723 5716 5717 5740 5748 5748 5744 5745 5744 5752 5776 5793 5785 5778 5774 5781 5783 5778 5778 5777 5775 5774 5761
5535 5537 5541 5546 5554 5567 5580 5595 5607 5619 5625 5668 5693 5697 5709 5710 5716 5725 5733 5730 5721 5709 5717 5720 5743 5744 5745 5744 5740 5743 5742 5747 5756 5776 5781 5772 5759 5766 5779 5788 5790 5789 5783 5776 5758
5510 5513 5516 5521 5534 5560 5578 5595 5600 5604 5604 5670 5702 5722 5718 5712 5717 5740 5746 5731 5721 5715 5719 5730 5746 5743 5741 5742 5749 5734 5761 5763 5762 5751 5731 5768 5727 5759 5770 5776 5785 5782 5778 5772 5759
5483 5486 5490 5493 5514 5530 5555 5574 5587 5589 5594 5719 5729 5756 5746 5725 5743 5744 5751 5736 5722 5723 5721 5740 5740 5739 5744 5749 5760 5751 5773 5772 5765 5748 5742 5738 5726 5748 5771 5768 5783 5778 5777 5772 5762
5462 5463 5466 5474 5485 5501 5520 5539 5550 5557 5607 5698 5743 5724 5719 5725 5731 5753 5737 5740 5737 5724 5738 5740 5760 5757 5760 5773 5770 5775 5767 5766 5758 5747 5718 5737 5730 5737 5758 5771 5774 5777 5778 5771 5758
5448 5448 5449 5458 5476 5484 5496 5503 5519 5559 5674 5694 5717 5714 5715 5715 5715 5720 5719 5713 5718 5702 5718 5734 5743 5763 5770 5758 5776 5766 5753 5717 5705 5706 5707 5748 5735 5748 5777 5782 5777 5772 5769 5763 5756
5440 5438 5441 5445 5453 5461 5464 5470 5509 5608 5634 5717 5724 5711 5692 5715 5715 5716 5715 5712 5729 5730 5722 5717 5715 5754 5774 5768 5760 5761 5746 5723 5692 5700 5718 5767 5733 5759 5781 5787 5782 5776 5769 5759 5749
5432 5436 5438 5443 5444 5446 5440 5452 5520 5581 5633 5651 5673 5672 5697 5702 5718 5705 5716 5723 5739 5744 5722 5727 5735 5769 5774 5780 5776 5757 5737 5758 5730 5744 5728 5749 5761 5776 5784 5776 5773 5768 5761 5751 5742
5426 5427 5435 5437 5437 5433 5431 5454 5517 5558 5591 5595 5611 5646 5650 5696 5703 5702 5711 5735 5734 5746 5754 5749 5730 5768 5774 5782 5778 5766 5771 5727 5729 5697 5694 5730 5746 5758 5761 5766 5767 5759 5754 5745 5739
5417 5414 5438 5437 5433 5422 5437 5476 5507 5522 5551 5548 5576 5599 5618 5634 5674 5714 5708 5733 5743 5745 5747 5753 5749 5756 5777 5761 5753 5751 5749 5748 5742 5733 5711 5707 5738 5784 5770 5767 5754 5754 5755 5743 5736
5406 5413 5441 5438 5420 5416 5435 5471 5476 5493 5514 5525 5542 5562 5588 5616 5631 5656 5715 5728 5757 5751 5731 5756 5746 5731 5758 5781 5779 5766 5754 5754 5725 5718 5735 5739 5742 5779 5775 5773 5767 5757 5751 5744 5739
5411 5430 5432 5423 5426 5425 5451 5461 5469 5482 5499 5512 5520 5543 5567 5580 5603 5658 5694 5745 5753 5745 5741 5749 5726 5719 5739 5767 5770 5749 5755 5758 5754 5743 5728 5718 5737 5779 5776 5771 5769 5755 5749 5742 5739
5406 5410 5430 5423 5430 5431 5444 5459 5464 5475 5490 5500 5500 5521 5537 5562 5599 5633 5671 5720 5756 5755 5750 5744 5735 5723 5728 5750 5758 5740 5749 5757 5747 5726 5726 5735 5753 5766 5758 5762 5764 5759 5751 5746 5741
5405 5418 5429 5427 5425 5420 5414 5440 5458 5453 5487 5500 5503 5513 5526 5552 5580 5623 5629 5638 5694 5746 5748 5735 5714 5734 5746 5763 5767 5755 5747 5749 5745 5745 5729 5742 5748 5767 5765 5763 5768 5764 5753 5747 5741
5397 5413 5422 5425 5428 5428 5436 5447 5464 5472 5482 5490 5492 5519 5528 5541 5562 5571 5587 5611 5644 5686 5739 5737 5714 5727 5730 5751 5765 5751 5754 5749 5753 5752 5743 5747 5748 5777 5782 5775 5773 5764 5756 5748 5743
5407 5407 5409 5418 5423 5428 5442 5448 5458 5462 5485 5493 5502 5510 5511 5530 5550 5561 5577 5599 5624 5640 5666 5718 5721 5711 5709 5740 5748 5739 5755 5752 5754 5760 5754 5739 5756 5773 5776 5778 5779 5764 5760 5754 5751